| time (UTC) | temp F | wind direction | speed MPH | gust MPH | rain 1hr in | rain 24hr in | rain mn in | humidity % | barometer mb |
| 20260505050331 | 69 | 162 | 0.0 | 0.0 | 0.00 | 0.00 | 0.00 | 99 | 1010.6 |
| 20260505040328 | 70 | 162 | 0.0 | 0.0 | 0.00 | 0.00 | 0.00 | 96 | 1011.0 |
| 20260505034903 | 70 | 161 | 0.0 | 0.0 | 0.00 | 0.00 | 0.00 | 96 | 1010.9 |
| 20260505033333 | 71 | 161 | 0.0 | 0.0 | 0.00 | 0.00 | 0.00 | 95 | 1010.8 |
| 20260505031829 | 71 | 163 | 0.0 | 0.0 | 0.00 | 0.00 | 0.00 | 95 | 1010.7 |
| 20260505030345 | 71 | 165 | 0.0 | 0.0 | 0.00 | 0.00 | 0.00 | 94 | 1010.6 |
| 20260505024841 | 71 | 165 | 0.0 | 0.0 | 0.00 | 0.00 | 0.00 | 93 | 1010.4 |
| 20260505023408 | 72 | 164 | 0.0 | 0.0 | 0.00 | 0.00 | 0.00 | 92 | 1010.3 |
| 20260505021838 | 72 | 163 | 0.0 | 0.0 | 0.00 | 0.00 | 0.00 | 91 | 1010.4 |
| 20260505020329 | 73 | 165 | 0.0 | 0.0 | 0.00 | 0.00 | 0.00 | 90 | 1010.4 |
| 20260505014832 | 74 | 166 | 0.0 | 0.0 | 0.00 | 0.00 | 0.00 | 88 | 1010.1 |
| 20260505013335 | 74 | 160 | 0.0 | 1.0 | 0.00 | 0.00 | 0.00 | 87 | 1010.2 |
| 20260505011841 | 75 | 154 | 6.0 | 11.0 | 0.00 | 0.00 | 0.00 | 86 | 1010.1 |
| 20260505010352 | 75 | 188 | 6.0 | 12.0 | 0.00 | 0.00 | 0.00 | 84 | 1010.2 |
| 20260505004843 | 76 | 182 | 7.0 | 16.0 | 0.00 | 0.00 | 0.00 | 83 | 1010.1 |
| 20260505003407 | 77 | 168 | 10.0 | 16.0 | 0.00 | 0.00 | 0.00 | 82 | 1010.0 |
| 20260505001833 | 78 | 157 | 9.0 | 18.0 | 0.00 | 0.00 | 0.00 | 81 | 1010.1 |
| 20260505000337 | 78 | 189 | 0.0 | 12.0 | 0.00 | 0.00 | 0.00 | 81 | 1010.3 |
| 20260504234841 | 78 | 163 | 7.0 | 16.0 | 0.00 | 0.00 | 0.00 | 79 | 1010.2 |
| 20260504233327 | 78 | 190 | 4.0 | 14.0 | 0.00 | 0.00 | 0.00 | 79 | 1010.6 |
| 20260504231835 | 79 | 171 | 7.0 | 13.0 | 0.00 | 0.00 | 0.00 | 78 | 1010.7 |
| 20260504230346 | 80 | 169 | 6.0 | 16.0 | 0.00 | 0.00 | 0.00 | 76 | 1010.8 |
| 20260504224905 | 81 | 173 | 10.0 | 17.0 | 0.00 | 0.00 | 0.00 | 76 | 1010.7 |
| 20260504223337 | 80 | 176 | 8.0 | 16.0 | 0.00 | 0.00 | 0.00 | 76 | 1010.5 |
| 20260504221828 | 80 | 192 | 4.0 | 12.0 | 0.00 | 0.00 | 0.00 | 76 | 1010.9 |
| 20260504220347 | 80 | 169 | 3.0 | 14.0 | 0.00 | 0.00 | 0.00 | 77 | 1011.1 |
| 20260504214835 | 80 | 174 | 4.0 | 12.0 | 0.00 | 0.00 | 0.00 | 76 | 1011.1 |
| 20260504213345 | 81 | 175 | 4.0 | 14.0 | 0.00 | 0.00 | 0.00 | 74 | 1011.3 |
| 20260504211835 | 81 | 151 | 7.0 | 14.0 | 0.00 | 0.00 | 0.00 | 74 | 1011.5 |
| 20260504210327 | 81 | 155 | 3.0 | 12.0 | 0.00 | 0.00 | 0.00 | 74 | 1011.6 |
| 20260504204836 | 81 | 188 | 7.0 | 14.0 | 0.00 | 0.00 | 0.00 | 75 | 1011.8 |
| 20260504203330 | 81 | 158 | 6.0 | 11.0 | 0.00 | 0.00 | 0.00 | 74 | 1012.1 |
| 20260504201828 | 81 | 196 | 6.0 | 11.0 | 0.00 | 0.00 | 0.00 | 74 | 1012.1 |
| 20260504200338 | 81 | 180 | 4.0 | 10.0 | 0.00 | 0.00 | 0.00 | 75 | 1012.5 |
| 20260504194846 | 80 | 189 | 7.0 | 16.0 | 0.00 | 0.00 | 0.00 | 74 | 1012.6 |
| 20260504193350 | 80 | 179 | 6.0 | 12.0 | 0.00 | 0.00 | 0.00 | 73 | 1012.9 |
| 20260504191833 | 81 | 135 | 8.0 | 15.0 | 0.00 | 0.00 | 0.00 | 72 | 1012.9 |
| 20260504190339 | 81 | 140 | 7.0 | 14.0 | 0.00 | 0.00 | 0.00 | 73 | 1012.9 |
| 20260504184844 | 81 | 198 | 6.0 | 10.0 | 0.00 | 0.00 | 0.00 | 72 | 1013.1 |
| 20260504183328 | 81 | 226 | 6.0 | 10.0 | 0.00 | 0.00 | 0.00 | 74 | 1013.5 |
| 20260504181836 | 80 | 159 | 0.0 | 12.0 | 0.00 | 0.00 | 0.00 | 72 | 1013.5 |
| 20260504180348 | 81 | 174 | 4.0 | 9.0 | 0.00 | 0.00 | 0.00 | 70 | 1013.5 |
| 20260504174835 | 80 | 154 | 3.0 | 9.0 | 0.00 | 0.00 | 0.00 | 72 | 1013.9 |
| 20260504173345 | 80 | 157 | 5.0 | 13.0 | 0.00 | 0.00 | 0.00 | 73 | 1014.2 |
| 20260504171902 | 80 | 197 | 7.0 | 10.0 | 0.00 | 0.00 | 0.00 | 72 | 1014.2 |
| 20260504170333 | 81 | 171 | 9.0 | 16.0 | 0.00 | 0.00 | 0.00 | 73 | 1014.3 |
| 20260504160337 | 77 | 188 | 3.0 | 14.0 | 0.00 | 0.00 | 0.00 | 78 | 1015.2 |
| 20260504150326 | 74 | 171 | 0.0 | 1.0 | 0.00 | 0.00 | 0.00 | 82 | 1015.3 |
| 20260504140341 | 73 | 161 | 0.0 | 0.0 | 0.00 | 0.00 | 0.00 | 85 | 1015.3 |
| 20260504130341 | 64 | 154 | 0.0 | 0.0 | 0.00 | 0.00 | 0.00 | 98 | 1015.2 |
| 20260504110408 | 59 | 154 | 0.0 | 0.0 | 0.00 | 0.00 | 0.00 | 99 | 1014.9 |
| 20260504100343 | 60 | 154 | 0.0 | 0.0 | 0.00 | 0.00 | 0.00 | 97 | 1014.9 |
| 20260504081844 | 60 | 154 | 0.0 | 0.0 | 0.00 | 0.00 | 0.00 | 94 | 1015.6 |
| 20260504080334 | 60 | 154 | 0.0 | 0.0 | 0.00 | 0.00 | 0.00 | 94 | 1016.2 |
| 20260504070339 | 62 | 154 | 0.0 | 0.0 | 0.00 | 0.00 | 0.00 | 90 | 1016.8 |